User: anonymous   Login
Location: Unspecified
(0.0000°N, 0.0000°E)
Time: 02:52:53
(UTC+02:00)
Language:

ARIANE 5 R/B - Orbit

View from above orbital plane
View from above orbital plane
View from above satellite
View from above satellite

Ground track
Ground track

The orbit data is extracted from the following two-line orbital elements,

1 27510U 02040C   15180.07111591 -.00000200  00000-0 -30124-3 0  9998
2 27510 004.9172 124.2835 7173406 148.9053 353.2610 02.27186426106558
Epoch (UTC): 29 June 2015 01:42:24
Eccentricity: 0.7173406
inclination: 4.9172°
perigee height: 531 km
apogee height: 35598 km
right ascension of ascending node: 124.2835°
argument of perigee: 148.9053°
revolutions per day: 2.27186426
mean anomaly at epoch: 353.2610°
orbit number at epoch: 10655

The dashed part of the orbit path shows where the satellite is in the earth's shadow,  

DLR